Home   Weather   Kløfta   Past weeks

Flag for Norway Past Weather in Kløfta, Norway — Yesterday and Last 2 Weeks

36 °F

Passing clouds.

Feels Like: 27 °F
Forecast: 40 / 44 °F
Wind: 12 mph from North

Location: Oslo Gardermoen Airport

Current Time: Oct 23, 2016 at 5:09:57 AM

Latest Report: Oct 23, 2016 at 4:50 AM

Visibility: N/A

Pressure: 30.33 "Hg

Humidity: 81%

Dew Point: 30 °F

Location of KløftaLocation

Past Weather in Kløfta — Graph


Kløfta Temperature Yesterday

Maximum temperature yesterday: 37 °F (at 12:20 AM)
Minimum temperature yesterday: 34 °F (at 5:50 PM)
Average temperature yesterday: 36 °F

High & Low Weather Summary for the Past Weeks

High48 °F (Oct 8, 1:20 PM)100% (Oct 17, 9:20 AM)30.60 "Hg (Oct 17, 9:20 AM)
Low30 °F (Oct 14, 3:50 AM)50% (Oct 8, 12:50 PM)30.12 "Hg (Oct 18, 11:20 AM)
Average39 °F80%30.42 "Hg
* Reported Oct 8 3:20 AM — Oct 23 3:50 AM, Kløfta, Weather by CustomWeather, © 2016

Note: Actual official high and low records may vary slightly from our data, if they occured in-between our weather recording intervals... More about our weather records


Kløfta Weather History for the Previous 24 Hours

Scroll right to see more
Time TempWeatherWind HumidityBarometerVisibility
3:50 AM
Sun, Oct 23
36 °FPartly cloudy.13 mph81%30.33 "HgN/A
3:20 AM36 °FPassing clouds.14 mph81%30.33 "HgN/A
2:50 AM36 °FPassing clouds.12 mph81%30.33 "HgN/A
2:20 AM36 °FPartly cloudy.14 mph87%30.33 "HgN/A
1:50 AM36 °FLight rain. Passing clouds.13 mph87%30.33 "HgN/A
1:20 AM34 °FLight rain. Passing clouds.13 mph93%30.36 "HgN/A
12:50 AM34 °FLight rain. Passing clouds.14 mph93%30.36 "HgN/A
12:20 AM34 °FLight rain. Passing clouds.13 mph93%30.36 "HgN/A
11:50 PM
Sat, Oct 22
34 °FLight rain. Passing clouds.10 mph93%30.36 "HgN/A
11:20 PM34 °FPassing clouds.13 mph93%30.36 "HgN/A
10:50 PM34 °FPassing clouds.13 mph93%30.36 "HgN/A
10:20 PM34 °FPassing clouds.12 mph93%30.36 "HgN/A
9:50 PM34 °FPassing clouds.12 mph93%30.36 "HgN/A
9:20 PM34 °FPassing clouds.13 mph93%30.36 "HgN/A
8:50 PM34 °FPassing clouds.10 mph93%30.36 "HgN/A
8:20 PM34 °FPartly cloudy.9 mph93%30.36 "HgN/A
7:50 PM34 °FDrizzle. Mostly cloudy.13 mph93%30.36 "HgN/A
7:20 PM34 °FDrizzle. Low clouds.12 mph93%30.36 "HgN/A
6:50 PM34 °FDrizzle. Mostly cloudy.10 mph93%30.36 "HgN/A
6:20 PM34 °FLight rain. Mostly cloudy.10 mph93%30.36 "Hg4 mi
5:50 PM34 °FLight rain. Fog.9 mph93%30.36 "Hg3 mi
5:20 PM36 °FLight rain. Mostly cloudy.12 mph81%30.36 "HgN/A
4:50 PM36 °FLight rain. Mostly cloudy.10 mph81%30.36 "HgN/A
4:20 PM36 °FPartly sunny.12 mph81%30.36 "HgN/A
3:50 PM36 °FOvercast.12 mph75%30.36 "HgN/A
3:20 PM36 °FOvercast.10 mph75%30.36 "HgN/A
2:50 PM36 °FOvercast.10 mph75%30.36 "HgN/A
2:20 PM36 °FOvercast.13 mph75%30.36 "HgN/A
1:50 PM36 °FPartly sunny.10 mph75%30.36 "HgN/A
1:20 PM36 °FSprinkles. Overcast.12 mph75%30.36 "HgN/A
12:50 PM36 °FOvercast.12 mph75%30.36 "HgN/A
12:20 PM36 °FOvercast.13 mph75%30.36 "HgN/A
11:50 AM36 °FOvercast.13 mph75%30.36 "HgN/A
11:20 AM36 °FOvercast.13 mph75%30.36 "HgN/A
10:50 AM37 °FOvercast.13 mph75%30.36 "HgN/A
10:20 AM36 °FOvercast.12 mph75%30.36 "HgN/A
9:50 AM36 °FMore clouds than sun.13 mph81%30.36 "HgN/A
9:20 AM36 °FOvercast.13 mph81%30.36 "HgN/A
8:50 AM36 °FOvercast.10 mph87%30.36 "HgN/A
8:20 AM36 °FLight rain. Overcast.10 mph87%30.36 "HgN/A
7:50 AM37 °FDrizzle. Overcast.12 mph81%30.36 "HgN/A
7:20 AM37 °FMostly cloudy.9 mph75%30.36 "HgN/A
6:50 AM37 °FOvercast.9 mph75%30.36 "HgN/A
6:20 AM37 °FOvercast.7 mph75%30.36 "HgN/A
5:50 AM37 °FOvercast.8 mph75%30.36 "HgN/A
5:20 AM37 °FPassing clouds.12 mph81%30.36 "HgN/A
Weather by CustomWeather, © 2016

See weather overviewHow to use our weather pages